TITAN 3C TRANSTAGE DEB, 43515

Orbit data source: Space-Track

TITAN 3C TRANSTAGE DEB, 43515 is space debris in GEO originally from a launch on Sun, 09 Feb 1969 UTC launched from the Air Force Eastern Test Range (AFETR). Debris objects in space refer to the collection of defunct objects orbiting the Earth. Examples of debris include non-operational satellites, rocket bodies, and fragments generated from explosions, collisions, or faulty payload assembly.

Loading next visibility...
Identifier
43515, 1969-013T
Orbit
GEO
Country
Flag of USUS
Related business
Manufacturer
Martin Marietta
Mission
Spacecraft
Bus & Motor
Unknown
Mass
Unknown
Launch date (UTC)
1969-02-09 (57 years ago)
Launch vehicle
Unknown
Launch site
Air Force Eastern Test Range (AFETR)
Object type
Payload
Rocket body
Debris
Shape & HBR
Unknown shape, 1.1 m
Radar Cross Section
Medium (>0.1 m² and <1 m²)

Expand to show TLE details & history
Last TLE update: 21 hours ago

TLE from 21 hours ago
0 TITAN 3C TRANSTAGE DEB
1 43515U 69013T   26169.48546919 -.00000198  00000-0  00000+0 0  9995
2 43515   1.8208  58.7068 0319764 146.8484 214.5478  0.95445195 28236
Epoch: 2026-06-18T11:39Z
TLE epoch observation values (Epoch: 2026-06-18T11:39:04.538Z)
Latitude
0.00002°
Longitude
-23.37572°
Altitude
38,356.188 km
Speed
2.945 km/s
True Right ascension
03h 52m 29s
True Declination
0° 00' 00"
Sunlit
Object was in daylight at epoch
Visualization orbit readout
Latitude
Unknown
Longitude
Unknown
Altitude
Unknown
Speed
Unknown
Apparent Right ascension
Unknown
Apparent Declination
Unknown
Sunlit
N/A
Visualization observer readout
Local Sidereal Time
19:48:43
Azimuth
Unknown
Elevation
Unknown
Doppler factor
Unknown
Orbital elements
Apogee altitude
38,590.794 km
Perigee altitude
35,804.016 km
Semi-major axis
43,575.542 km
Eccentricity
0.03198
Inclination
1.8208°
RAAN
58.7068°
Arg. of periapsis
146.8484°
True anomaly
212.53656°
Mean anomaly
214.5478°
Eccentric anomaly
213.53564°
Mean motion
0.2386 °/min
Orbital period
1,508.77 mins
BSTAR
0
Loading maneuver chart data...
Computing Atmospheric mass density...

Documentation

Showing up to 5 results
|